Theta_e
287 286 286 285 285 285 285 284 284 284 284 284 284 284 283 283 282 281 280 281 280 280 280 279 279 278 278 278 278 277 277 278
287 287 286 286 285 285 284 284 284 284 284 283 283 283 283 282 281 281 280 280 279 279 279 278 278 277 277 277 277 276 276 276
288 287 285 285 285 284 284 284 283 284 283 283 283 282 281 281 281 280 279 279 278 278 278 278 277 277 276 276 276 276 276 276
288 286 285 285 285 284 284 284 284 283 283 282 281 281 281 280 280 280 279 278 278 277 277 277 277 276 276 276 276 276 276 276
288 287 286 285 285 284 284 284 283 283 282 281 281 281 280 280 279 279 278 277 277 277 276 276 276 276 276 276 276 276 276 277
288 287 286 285 285 284 284 284 284 283 282 282 281 281 281 280 279 278 278 277 277 276 275 275 275 276 275 276 275 275 275 275
290 288 287 285 285 285 284 283 284 282 282 281 282 281 280 279 278 277 277 276 275 275 274 273 275 278 277 277 275 276 275 274
290 289 289 287 286 285 284 283 282 281 280 281 282 281 279 278 277 276 275 275 274 273 273 273 273 278 278 277 276 275 274 274
290 290 290 289 287 286 284 282 282 282 281 281 281 279 277 277 276 275 274 273 273 272 273 272 273 278 278 277 275 274 274 274
292 292 291 289 288 286 284 282 282 281 281 281 280 278 277 276 274 274 273 272 271 272 270 270 270 277 277 276 273 273 273 275
289 288 288 286 286 284 282 282 281 281 282 281 280 279 277 276 273 272 271 273 273 272 270 269 267 275 277 276 273 267 272 273
285 285 284 283 282 281 280 281 281 279 279 279 279 279 277 273 271 272 269 272 269 269 268 268 268 268 275 277 274 271 270 271
282 282 282 281 281 279 280 280 278 278 277 276 275 275 274 272 268 269 269 266 265 264 265 268 269 271 273 276 277 276 271 270
280 279 279 278 279 279 278 277 276 275 273 269 270 271 271 270 268 266 266 267 266 267 266 267 270 269 275 276 276 277 275 274
277 276 275 274 276 274 276 274 273 270 270 269 270 268 268 269 268 268 266 266 266 267 267 265 266 267 269 270 270 273 274 274
276 275 275 273 272 271 273 273 272 271 269 269 268 267 266 267 268 268 266 268 263 264 264 263 264 267 271 270 266 267 270 271
273 272 271 271 271 270 271 271 271 269 269 268 267 265 266 265 264 274 274 275 276 277 269 263 272 274 276 277 277 278 278 267
274 272 271 270 268 264 265 267 266 266 267 267 267 266 264 263 263 262 267 276 276 277 277 277 277 277 278 278 278 278 277 260
270 267 267 265 262 260 260 263 263 263 265 265 263 263 262 261 262 261 260 258 260 268 271 272 273 274 274 275 275 271 271 255
264 263 263 261 257 257 258 261 261 263 262 262 262 260 261 260 259 258 258 257 256 256 263 265 270 271 272 273 270 268 262 259
Wind_Speed
14 12 10 8 7 8 8 9 8 8 7 7 7 8 8 7 7 7 6 6 6 6 6 6 5 5 5 4 4 4 3 2
14 13 12 10 9 9 10 10 9 8 7 8 7 7 7 7 7 7 7 7 7 6 6 4 4 4 4 3 3 2 2 3
15 14 13 13 11 10 9 10 8 7 7 8 8 8 8 7 7 7 7 7 7 6 5 4 3 3 2 1 1 1 2 3
14 15 15 14 13 12 10 10 9 8 9 7 8 8 8 8 8 7 7 7 6 5 5 4 3 2 2 3 2 3 3 3
15 16 15 14 14 13 12 11 11 10 10 10 10 9 8 8 8 7 7 7 6 5 5 3 3 4 4 2 3 3 3 4
18 16 15 14 14 13 12 13 13 11 10 11 8 8 8 8 8 7 7 6 6 6 4 4 4 3 4 1 3 4 5 5
16 14 16 16 15 14 14 12 13 12 12 8 9 9 8 8 8 7 7 6 6 5 5 5 3 8 7 4 3 5 6 6
15 15 13 15 15 16 14 10 12 11 8 9 10 10 9 9 9 8 7 6 6 6 6 6 6 10 9 8 5 5 5 7
9 8 9 9 12 11 10 13 12 11 9 9 10 10 9 10 10 7 6 8 6 6 6 6 6 11 10 10 4 5 7 7
10 10 10 10 12 12 10 11 11 10 11 12 11 11 11 11 10 7 7 5 5 4 7 7 5 11 11 9 3 7 8 7
9 7 10 7 9 10 9 10 11 11 12 10 10 11 12 11 10 6 5 7 6 6 6 7 6 13 13 10 3 5 6 7
9 9 8 8 9 9 8 11 10 7 7 9 10 11 9 8 5 7 6 6 6 6 5 6 6 8 14 14 7 6 6 6
8 7 7 8 9 9 11 7 7 8 8 8 7 6 7 9 5 7 7 6 6 5 4 5 7 12 14 17 17 13 8 6
7 8 6 6 7 9 5 7 7 8 7 6 6 6 6 8 8 5 6 6 6 7 6 6 6 6 15 15 16 17 11 5
8 7 6 4 5 4 7 7 7 7 6 6 7 6 5 5 6 6 7 6 5 6 6 2 3 4 5 5 6 12 11 12
7 6 5 5 4 4 6 7 7 6 6 6 5 6 5 5 6 6 3 6 4 4 4 4 4 5 10 9 6 7 10 10
3 4 3 4 3 3 5 6 7 6 5 5 5 4 4 4 1 10 11 13 14 13 7 3 10 14 16 18 19 20 20 2
6 5 5 6 7 4 4 5 5 5 5 4 4 4 4 2 3 2 4 10 12 13 15 17 16 17 19 20 22 22 18 3
6 6 6 7 6 3 4 6 5 5 7 5 3 4 3 3 3 3 2 1 2 5 9 11 15 18 19 20 19 9 7 3
7 6 7 7 4 3 4 6 6 6 4 5 5 4 4 4 3 2 1 1 2 2 6 7 16 19 20 21 9 7 3 3
Wind_Direction
174 170 162 160 155 149 148 149 146 140 138 134 126 122 125 118 126 130 129 126 123 110 105 89 81 66 73 69 54 46 22 25
176 170 161 159 162 161 159 154 151 148 144 137 137 133 131 134 136 143 135 134 126 123 112 112 104 88 79 91 85 44 355 350
173 167 168 169 168 171 161 157 158 148 142 144 143 145 144 146 148 144 147 136 132 122 128 135 129 119 121 123 93 303 321 325
176 178 175 175 174 172 168 161 158 153 151 154 157 157 160 153 150 148 146 134 129 148 158 159 169 190 216 194 240 264 263 272
184 185 183 180 175 173 172 164 166 163 166 169 169 166 161 151 150 152 152 147 155 167 162 172 205 217 226 216 255 270 276 282
188 187 183 179 176 176 175 169 171 171 172 179 163 161 153 153 156 160 151 157 166 160 166 196 215 226 200 222 271 281 279 273
188 181 185 184 179 177 178 171 171 176 183 166 166 163 161 152 155 155 156 156 153 168 183 213 226 233 217 229 249 270 276 277
188 187 186 184 177 181 176 158 172 176 170 169 166 167 162 156 152 167 173 166 174 188 194 210 221 237 232 239 243 263 268 272
179 166 170 164 174 162 161 167 170 177 171 164 167 166 156 160 173 168 166 177 177 188 200 210 220 232 234 242 241 258 264 263
163 166 170 165 166 161 160 155 169 176 175 180 173 165 168 179 179 179 166 174 176 182 192 202 219 235 237 241 234 260 263 266
149 143 149 154 138 138 149 160 181 179 186 176 170 173 183 184 177 165 169 184 182 193 196 208 215 233 241 241 216 242 258 258
122 135 141 131 130 142 148 188 188 149 152 166 178 185 182 158 155 166 161 160 181 196 200 208 203 226 246 245 230 233 250 254
125 134 140 138 140 152 187 179 151 155 162 166 163 160 157 160 147 158 160 171 184 193 224 225 222 224 243 246 243 243 246 245
132 133 143 155 157 169 194 153 149 144 151 141 131 140 149 156 159 149 165 184 195 207 225 228 220 215 240 238 246 253 262 257
134 147 160 169 167 157 150 136 133 134 139 138 147 148 151 160 170 178 186 196 205 209 226 208 205 194 201 220 244 264 266 270
152 160 188 165 174 149 139 135 141 140 151 159 158 168 173 189 183 193 205 189 187 207 190 187 216 217 226 222 219 223 238 242
153 136 177 149 145 135 141 148 144 152 167 169 159 164 156 162 263 236 221 230 242 238 205 233 244 251 253 258 259 256 248 188
177 151 130 113 95 60 90 130 140 153 156 142 134 136 147 146 152 187 287 253 253 260 266 273 269 264 272 272 269 268 259 157
108 96 104 97 80 37 92 104 103 98 106 123 123 131 135 130 122 118 131 180 305 321 294 288 283 283 283 279 281 274 235 158
94 89 96 96 53 14 89 107 108 108 94 99 99 89 91 86 94 112 116 213 237 310 295 299 290 294 292 292 285 273 210 188